Yue Zhu Hai 4038 — 4038 — position and weather

sailwx.info

Track history (hours):
 
Tides and Currents Weather Stations Pressure Air Temp Water Temp Dewpoint Dewpoint Depression Visibility Wind Speed Wind Dir Waves Ship Positions

Yue Zhu Hai 4038

Last reported at 2014-Aug-26 20:30 UTC. Time now 2014-Aug-30 14:30 UTC.
Position N 22°16' E 113°38'.

Length 21 m.

Type: Fishing. MMSI: 412478675.

Date/timePositionNaut miles runAvg speedWind from/ knotsBaromVisibWave heightAir tempDewpointWater temp
2014-Aug-26 20:30N 22°16' E 113°38'9 8.6
2014-Aug-26 19:28N 22°09' E 113°43'7 2.9
2014-Aug-26 17:10N 22°03' E 113°46'610.0
2014-Aug-26 16:33N 22°09' E 113°44'  
2014-Aug-23 03:25N 22°16' E 113°39'8 8.8
2014-Aug-23 02:28N 22°13' E 113°48'2 0.6
2014-Aug-22 23:27N 22°14' E 113°46'9 9.2
2014-Aug-22 22:29N 22°17' E 113°37'0 0.0
2014-Aug-21 03:33N 22°17' E 113°37'9 8.7
2014-Aug-21 02:33N 22°14' E 113°46'  
Track history (hours):
 
Tides and Currents Weather Stations Pressure Air Temp Water Temp Dewpoint Dewpoint Depression Visibility Wind Speed Wind Dir Waves Ship Positions

Yue Zhu Hai 4038

Last reported at 2014-Aug-26 20:30 UTC. Time now 2014-Aug-30 14:30 UTC.
Position N 22°16' E 113°38'.

Length 21 m.

Type: Fishing. MMSI: 412478675.

Date/timePositionNaut miles runAvg speedWind from/ knotsBaromVisibWave heightAir tempDewpointWater temp
2014-Aug-26 20:30N 22°16' E 113°38'9 8.6
2014-Aug-26 19:28N 22°09' E 113°43'7 2.9
2014-Aug-26 17:10N 22°03' E 113°46'610.0
2014-Aug-26 16:33N 22°09' E 113°44'  
2014-Aug-23 03:25N 22°16' E 113°39'8 8.8
2014-Aug-23 02:28N 22°13' E 113°48'2 0.6
2014-Aug-22 23:27N 22°14' E 113°46'9 9.2
2014-Aug-22 22:29N 22°17' E 113°37'0 0.0
2014-Aug-21 03:33N 22°17' E 113°37'9 8.7
2014-Aug-21 02:33N 22°14' E 113°46'  

Dump ship's entire track history